SCP
0 0 0 0 0 0 0 0 0 0 0 0 0 0 0 0 0 0 0 0 0 0 0 0 0 0 0 0 0 0 0 0 0 0 0 0 0 0
0 0 0 0 0 0 0 0 0 0 0 0 0 0 0 0 0 0 0 0 0 0 0 0 0 0 0 0 0 0 0 0 0 0 0 0 0 0
0 0 0 0 0 0 0 0 0 0 0 0 0 0 0 0 0 0 0 0 0 0 0 0 0 0 0 0 0 0 0 0 0 0 0 0 0 0
0 0 0 0 0 0 0 0 0 0 0 0 0 0 0 0 0 0 0 0 0 0 0 0 0 0 0 0 0 0 0 0 0 0 0 0 0 0
0 0 0 0 0 0 0 0 0 0 0 0 0 0 0 0 0 0 0 0 0 0 0 0 0 0 0 0 0 0 0 0 0 0 0 0 0 0
0 0 0 0 0 0 0 0 0 0 0 0 0 0 0 0 0 0 0 0 0 0 0 0 0 0 0 0 0 0 0 0 0 0 0 0 0 0
0 0 0 0 0 0 0 0 0 0 0 0 0 0 0 0 0 0 0 0 0 0 0 0 0 0 0 0 0 0 0 0 0 0 0 0 0 0
0 0 0 0 0 0 0 0 0 0 0 0 0 0 0 0 0 0 0 0 0 0 0 0 0 0 0 0 0 0 0 0 0 0 0 0 0 0
0 0 0 0 0 0 0 0 0 0 0 0 0 0 0 0 0 0 0 0 0 0 0 0 0 0 0 0 0 0 0 0 0 0 0 0 0 0
0 0 0 0 0 0 0 0 0 0 0 0 0 0 0 0 0 0 0 0 0 0 0 0 0 0 0 0 0 0 0 0 0 0 0 0 0 0
0 0 0 0 0 0 0 0 0 0 0 0 -0 -0 -0 0 0 0 0 0 0 0 0 0 0 0 0 0 0 0 0 0 0 0 0 0 0 0
0 0 0 0 0 0 0 0 0 0 0 0 -0 -0 -0 -0 0 0 0 0 0 0 0 0 0 0 0 0 0 0 0 0 0 0 0 0 0 0
0 0 0 0 0 0 0 0 0 0 0 0 0 -0 -0 -0 -0 0 0 0 0 0 0 0 0 0 0 0 0 0 0 0 0 0 0 0 0 0
0 0 0 0 0 0 0 0 0 0 0 0 0 0 0 -0 -0 -0 0 0 0 0 0 0 0 0 0 0 0 0 0 0 0 0 0 0 0 0
0 0 0 0 0 0 0 0 0 0 0 0 0 0 0 0 -0 -0 0 0 0 0 0 0 0 0 0 0 0 0 0 0 0 0 0 0 0 0
0 0 0 0 0 0 0 0 0 0 0 0 0 0 0 0 0 0 0 0 0 0 0 0 0 0 0 0 0 0 0 0 0 0 0 0 0 0
0 0 0 0 0 0 0 0 0 0 0 0 0 0 0 0 0 0 0 0 0 0 0 0 0 0 0 0 0 0 0 0 0 0 0 0 0 0
0 0 0 0 0 0 0 0 0 0 0 0 0 0 0 0 0 0 0 0 0 0 0 0 0 0 0 0 0 0 0 0 0 0 0 0 0 0
0 0 0 0 0 0 0 0 0 0 0 0 0 0 0 0 0 0 0 0 0 0 0 0 0 0 0 0 0 0 0 0 0 0 0 0 0 0
0 0 0 0 0 0 0 0 0 0 0 0 0 0 0 0 0 0 0 0 0 0 0 0 0 0 0 0 0 0 0 0 0 0 0 0 0 0
0 0 0 0 0 0 0 0 0 0 0 0 0 0 0 0 0 0 0 0 0 0 0 0 0 0 0 0 0 0 0 0 0 0 0 0 0 0
0 0 0 0 0 0 0 0 0 0 0 0 0 0 0 0 0 0 0 0 0 0 0 0 0 0 0 0 0 0 0 0 0 0 0 0 0 0
0 0 0 0 0 0 0 0 0 0 0 0 0 0 0 0 0 0 0 0 0 0 0 0 0 0 0 0 0 0 0 0 0 0 0 0 0 0
Wind_Speed
1 1 1 1 1 1 2 3 3 1 1 2 1 1 0 0 1 1 1 3 4 5 6 6 7 7 7 7 8 9 9 9 10 10 10 10 10 10
1 1 1 1 1 1 2 1 2 3 2 1 1 1 0 1 1 1 1 2 3 3 4 5 5 5 6 6 6 7 8 8 8 8 9 9 9 9
1 2 1 1 1 1 1 1 1 2 2 1 1 0 0 0 1 1 1 1 1 2 3 3 4 4 4 5 5 6 6 7 7 7 7 7 8 8
2 2 2 1 1 2 2 2 2 2 3 2 1 0 0 1 0 0 1 1 1 1 2 2 3 3 3 4 5 5 5 5 6 6 6 6 7 7
3 3 3 3 2 2 2 2 2 2 2 3 2 0 0 0 1 1 1 1 1 1 2 2 3 3 3 3 4 4 4 5 5 5 5 6 6 6
3 3 3 4 4 3 2 3 2 2 2 2 2 1 1 0 1 0 1 1 1 1 2 2 2 3 3 3 3 3 3 4 4 4 4 5 5 6
2 2 3 4 5 4 3 3 4 3 3 2 2 1 1 1 2 1 1 0 1 1 1 2 2 1 2 2 1 1 2 2 3 3 4 4 5 5
2 2 2 3 3 4 4 5 6 5 4 3 2 3 3 3 2 2 2 1 1 1 0 1 1 1 1 1 2 1 1 1 2 2 3 3 4 4
3 2 2 2 2 2 2 3 4 5 6 5 4 5 4 5 4 3 3 2 2 1 1 1 1 1 2 2 2 1 0 0 1 1 2 2 3 3
3 3 3 2 2 2 2 2 2 2 4 4 5 5 4 5 5 4 3 2 0 0 1 1 1 1 2 2 2 1 0 0 0 0 1 1 2 2
2 2 3 3 4 4 3 2 2 2 3 4 4 4 4 5 6 4 3 2 1 2 2 2 1 1 1 2 2 1 1 1 1 1 1 0 1 2
2 2 4 4 4 4 4 4 3 3 1 1 1 1 2 4 7 5 5 3 2 2 3 2 1 0 1 1 1 1 1 1 1 1 1 1 0 0
2 2 3 5 5 5 4 4 5 3 2 2 1 1 1 1 3 3 4 4 4 3 4 3 2 1 1 1 2 2 1 1 1 1 1 1 1 1
3 3 3 5 5 4 3 4 4 2 1 1 1 2 2 2 2 3 4 3 3 3 5 5 3 3 2 2 2 2 1 2 1 1 1 2 2 2
3 5 4 4 4 3 4 4 3 2 2 2 2 3 2 2 1 1 1 1 1 2 3 4 3 3 3 3 3 2 2 2 2 2 1 2 2 1
2 3 3 3 2 2 2 2 2 3 3 3 3 2 1 1 1 1 1 1 0 1 1 2 4 4 3 3 3 3 3 2 2 2 2 2 2 2
2 1 1 1 1 1 1 1 2 2 2 2 2 2 2 2 2 1 1 1 2 2 1 0 0 1 2 3 3 4 3 3 3 2 2 2 3 3
4 2 2 3 3 3 3 3 3 3 3 3 3 3 3 3 2 2 1 2 3 3 2 1 1 1 1 2 4 4 3 3 2 2 2 2 4 4
3 3 3 4 4 4 3 4 4 4 3 3 4 4 3 3 3 3 3 2 3 3 3 2 2 2 2 3 3 4 3 2 2 2 3 3 4 4
3 4 4 4 4 4 4 4 4 3 3 4 4 4 4 3 3 3 4 4 3 3 3 3 4 4 4 4 3 3 5 4 3 3 2 2 3 4
4 4 4 4 4 4 4 4 4 4 4 4 4 4 4 4 4 4 4 5 4 3 4 4 4 4 1 1 1 2 2 5 5 3 3 1 2 2
5 5 5 5 5 5 4 4 4 4 4 4 4 4 4 4 5 5 4 4 4 4 4 2 2 2 2 3 4 3 3 2 3 5 5 5 3 4
6 5 5 5 5 4 4 5 5 5 4 4 4 4 4 4 4 4 5 4 4 4 3 2 2 2 2 3 3 3 4 3 2 2 4 6 8 8
Wind_Direction
194 184 172 173 155 169 163 163 156 172 284 267 276 300 286 110 16 29 15 43 43 46 46 46 47 44 43 42 38 36 36 35 34 33 33 35 37 36
189 174 183 172 155 157 165 167 169 167 209 249 235 256 266 112 82 51 20 41 34 38 45 47 46 44 42 40 38 36 36 34 32 30 30 30 34 35
211 189 204 174 163 165 157 153 158 154 186 261 244 248 117 91 28 33 41 7 357 27 39 45 46 47 43 40 36 35 34 31 28 27 27 29 34 36
218 203 215 182 183 183 172 174 176 172 167 192 221 235 211 199 128 85 35 38 344 9 34 42 46 46 41 38 35 31 30 27 23 22 24 30 33 35
210 205 213 183 200 206 195 186 181 165 158 164 188 175 142 150 72 35 38 15 352 25 29 25 32 39 39 38 35 27 25 25 20 17 22 25 25 28
212 209 208 198 205 203 200 191 164 143 142 153 163 166 169 159 121 123 11 3 345 4 12 16 17 18 15 26 30 28 24 21 18 19 22 23 23 26
227 221 218 213 210 201 196 183 161 150 150 158 169 171 186 180 194 183 181 335 323 316 347 350 349 349 342 336 347 19 26 23 26 31 27 27 27 25
222 232 234 217 218 215 205 177 166 164 169 170 185 192 206 198 184 178 164 149 272 241 173 303 347 307 301 287 299 313 34 21 24 27 31 36 33 28
215 213 230 231 214 199 200 176 187 191 180 173 183 204 200 195 178 185 191 201 226 217 151 280 307 283 286 298 290 243 206 21 17 18 32 41 35 25
221 214 208 217 204 178 162 163 202 219 211 197 197 207 204 189 183 186 184 176 225 232 164 214 275 282 303 309 307 248 230 264 60 42 20 29 28 28
233 224 208 209 209 176 157 180 224 261 248 227 222 222 216 194 169 140 149 154 219 245 195 184 235 301 312 300 309 326 328 305 292 287 283 337 38 25
245 240 229 219 214 186 171 179 213 240 230 238 234 223 205 189 184 183 180 179 184 227 202 180 191 162 297 285 298 311 311 298 296 285 270 269 204 81
221 240 242 229 217 206 191 192 217 208 181 188 198 212 204 204 200 198 196 187 187 217 194 172 181 194 207 274 304 300 282 285 285 270 271 274 251 196
216 229 233 223 211 202 201 218 212 161 146 166 192 220 223 230 229 211 209 216 221 219 192 179 184 191 189 226 260 277 285 272 243 233 251 267 253 230
218 223 223 208 196 199 210 204 174 159 168 195 220 230 228 224 211 197 210 210 259 249 205 206 195 187 191 207 219 228 254 268 232 226 240 238 239 236
213 212 195 177 174 195 201 202 189 191 194 214 226 228 217 211 211 198 202 191 251 289 260 222 203 190 204 214 211 222 214 221 229 229 233 248 245 229
163 124 132 145 182 221 232 224 215 208 217 220 213 217 221 225 235 207 189 185 214 239 260 303 149 192 216 202 213 223 217 227 227 216 215 249 255 242
153 168 195 203 208 213 218 225 224 225 223 218 216 216 217 219 228 225 207 205 223 232 226 201 143 71 353 284 223 216 218 226 226 213 209 228 260 258
174 198 207 212 218 218 220 223 229 230 221 220 225 225 221 219 219 222 217 222 234 225 219 198 187 179 217 266 273 221 209 214 204 218 224 227 247 263
206 210 216 219 220 221 222 227 230 227 224 229 230 227 220 218 223 225 220 219 220 219 220 211 210 208 214 226 240 260 220 208 203 219 233 251 267 282
217 222 221 219 221 222 224 226 224 223 224 225 229 227 223 222 227 227 223 222 216 215 226 232 229 206 174 129 236 260 251 231 221 216 205 226 274 281
218 221 223 222 220 221 222 222 225 225 221 225 232 230 224 219 221 219 216 218 221 221 232 235 186 172 187 212 234 244 255 264 251 241 235 220 214 229
223 222 222 222 221 219 218 219 219 223 224 226 227 224 221 220 218 212 213 215 218 219 218 219 206 206 219 216 228 242 247 247 248 262 267 259 253 257